User: anonymous   Login
Location: Aiyekoto
(8.4333°N, 4.3667°E)
Time: 02:56:10
(UTC+00:00)
Language:

Centaur AC-72 - Orbit

View from above orbital plane
View from above orbital plane
View from above satellite
View from above satellite

Ground track
Ground track

The orbit data is extracted from the following two-line orbital elements,

1 21907U 92013B   20220.27993709 -.00000104 +00000-0 +00000-0 0  9992
2 21907 019.1003 262.0833 6942967 099.8001 356.3272 02.25608058234114
Epoch (UTC): 07 August 2020 06:43:06
Eccentricity: 0.6942967
inclination: 19.1003°
perigee height: 1129 km
apogee height: 35227 km
right ascension of ascending node: 262.0833°
argument of perigee: 99.8001°
revolutions per day: 2.25608058
mean anomaly at epoch: 356.3272°
orbit number at epoch: 23411

The dashed part of the orbit path shows where the satellite is in the earth's shadow,  

DLR